[[{"header":{"parameterUnit":"m.s-1","parameterCategory":1,"la1":30.2991,"la2":30.254,"lo1":-89.0895,"lo2":-89.0444,"dx":0.0017,"dy":0.0017,"nx":28,"ny":28,"refTime":"2023-01-07T03:00:00:Z","depth":0,"parameterNumber":2,"parameterNumberName":"U-component_of_WINDS"},"data":[0,0,0,0,0,0,0,0,0,0,0,0,0,0,0,0,0,0,0,0,0,0,0,0,0,0,0,0,0,0,0,0,0,0,0,0,0,0,0,0,0,0,0,0,0,0,0,0,0,0,0,0,0,0,0,0,0,0,0.5363,0.5363,0,0.539,0.539,0.539,0.54,0.54,0.54,0.54,0.5427,0.5428,0.5429,0,0,0,0,0,0,0,0,0,0,0,0,0,0.5319,0.532,0.5363,0.5363,0.5364,0.539,0.539,0.539,0.54,0.54,0.54,0.54,0.5427,0.5428,0.5429,0,0,0,0,0,0,0,0,0,0,0,0,0,0.5341,0.532,0.5363,0.5372,0.5373,0.539,0.539,0.5391,0.54,0.54,0.54,0.54,0.5427,0.5428,0.5429,0.5439,0,0,0.5433,0.5434,0,0,0,0,0,0,0,0,0.534,0.5343,0.537,0.5371,0.5372,0.5392,0.5385,0.5407,0.54,0.539,0.54,0.54,0.5416,0.5418,0.5423,0.5441,0.5442,0.5433,0.5434,0.5434,0.5435,0,0,0,0,0,0,0,0.5338,0.5342,0.5374,0.537,0.5372,0.5374,0.5377,0.5389,0.5403,0.5391,0.5392,0.5395,0.5416,0.5422,0.5424,0.5442,0.5433,0.5434,0.5435,0.5435,0.5469,0.5469,0,0,0,0,0,0,0.5335,0.534,0.5373,0.5374,0.5355,0.5375,0.5378,0.5385,0.5403,0.5406,0.5395,0.5395,0.542,0.5422,0.5425,0.5437,0.5434,0.5436,0.5436,0.5469,0.5469,0.5469,0,0,0,0,0,0,0.5335,0.5338,0.5372,0.5358,0.5362,0.5376,0.5384,0.5386,0.5392,0.5406,0.5409,0.5398,0.542,0.5423,0.5436,0.5439,0.5436,0.5437,0.5468,0.5469,0.5469,0.5463,0,0,0,0,0,0,0.5333,0.5338,0.5342,0.5358,0.5363,0.5382,0.5384,0.5387,0.5394,0.5395,0.541,0.5412,0.542,0.5434,0.5437,0.544,0.5438,0.5468,0.5469,0.5469,0.5463,0.5463,0.5463,0,0,0,0,0,0.5332,0.534,0.5342,0.5346,0.5368,0.5382,0.5385,0.5394,0.5394,0.5398,0.5407,0.5412,0.5438,0.5435,0.5438,0.5442,0.5468,0.5468,0.5469,0.5463,0.5463,0.5463,0,0,0,0,0,0,0.5324,0.5342,0.5345,0.5358,0.5369,0.5384,0.539,0.5394,0.5405,0.5405,0.5415,0.5419,0.543,0.5437,0.5434,0.5453,0.5453,0.5454,0.5448,0.5448,0.5448,0.5446,0.5439,0,0,0,0,0,0.5324,0.5334,0.5349,0.5359,0.5364,0.5376,0.5382,0.5388,0.54,0.5404,0.5414,0.5424,0.5435,0.5442,0.5452,0.5464,0.5467,0.5468,0.5468,0.5468,0.5469,0.5475,0.5476,0.547,0.547,0.547,0,0,0.5324,0.5335,0.5341,0.5358,0.5367,0.5377,0.538,0.539,0.5397,0.5406,0.5418,0.5425,0.5438,0.545,0.5456,0.5456,0.5471,0.5469,0.5469,0.5469,0.5476,0.5476,0.5477,0.547,0.547,0.547,0,0,0.533,0.5339,0.5348,0.5357,0.537,0.5377,0.5379,0.5394,0.5399,0.5411,0.5417,0.5426,0.5444,0.5452,0.5459,0.5466,0.547,0.5469,0.5469,0.5475,0.5476,0.5476,0.5478,0.5479,0.547,0.547,0.547,0,0.5328,0.5343,0.5352,0.5362,0.5369,0.5377,0.5386,0.5394,0.541,0.5414,0.5415,0.5437,0.5446,0.5459,0.5461,0.5466,0.5469,0.5468,0.5475,0.5475,0.5476,0.5478,0.5479,0.547,0.547,0.547,0.547,0,0.5341,0.5351,0.5357,0.5372,0.5379,0.5389,0.5399,0.5406,0.541,0.5418,0.543,0.5441,0.5453,0.5457,0.5462,0.5471,0.5471,0.5473,0.5474,0.5476,0.5478,0.5479,0.5469,0.5469,0.5469,0.547,0,0,0.5343,0.5362,0.5364,0.537,0.5385,0.5393,0.5402,0.5414,0.5419,0.543,0.5438,0.5452,0.5454,0.5461,0.5467,0.5472,0.5477,0.5474,0.5474,0.5474,0.5487,0.5485,0.5486,0.5479,0.5479,0.548,0.5486,0,0.535,0.5367,0.5375,0.5389,0.5398,0.5405,0.5413,0.5422,0.5429,0.5438,0.5445,0.5455,0.5457,0.5461,0.5467,0.5475,0.5479,0.5475,0.5487,0.5487,0.5483,0.5487,0.5486,0.5491,0.5487,0.5487,0.5487,0,0.536,0.5371,0.5385,0.5398,0.5402,0.5409,0.542,0.5429,0.5439,0.5444,0.5451,0.5457,0.5466,0.5466,0.5479,0.5476,0.5481,0.5486,0.5486,0.5488,0.5487,0.5489,0.5493,0.5494,0.5488,0.5488,0.5488,0,0.536,0.5377,0.5388,0.5394,0.5409,0.5413,0.542,0.543,0.5437,0.5446,0.545,0.5461,0.5467,0.5475,0.5483,0.5482,0.5495,0.5495,0.5499,0.5498,0.5501,0.5501,0.5506,0.5505,0.5505,0.5505,0.5505,0,0.5367,0.5376,0.5388,0.5395,0.5405,0.5413,0.5422,0.5429,0.5438,0.5446,0.5452,0.5459,0.5469,0.5477,0.5484,0.5493,0.5496,0.55,0.5501,0.5499,0.5499,0.5503,0.5503,0.5505,0.5505,0.5505,0.5505,0,0.5369,0.5378,0.539,0.5403,0.5406,0.5413,0.5424,0.543,0.5437,0.5446,0.5449,0.546,0.5469,0.5478,0.5491,0.5495,0.5505,0.5507,0.5502,0.5502,0.5505,0.5505,0.5513,0.5515,0.5512,0.5512,0.5512,0,0.5373,0.538,0.5393,0.5399,0.5405,0.5414,0.5421,0.5429,0.5435,0.5447,0.5452,0.5462,0.5471,0.5486,0.5495,0.5505,0.5507,0.5509,0.5509,0.5506,0.5507,0.5506,0.5507,0.5509,0.5509,0.5509,0.5509,0,0.5379,0.5383,0.5392,0.5402,0.541,0.5418,0.5427,0.5431,0.5441,0.5448,0.5458,0.5465,0.5478,0.5487,0.5498,0.5504,0.5508,0.5509,0.5511,0.5509,0.5505,0.5507,0.5502,0.5509,0.5509,0.5509,0.5509,0.5509,0.5382,0.5388,0.5398,0.5408,0.5415,0.5423,0.543,0.5437,0.5445,0.5457,0.5461,0.5471,0.5481,0.5495,0.5501,0.5509,0.551,0.5512,0.5512,0.5512,0.5512,0.5504,0.5511,0.5511,0.5511,0.5511,0.5511,0,0.5388,0.5395,0.5404,0.5416,0.5423,0.5426,0.5435,0.5441,0.545,0.5459,0.5467,0.5478,0.5488,0.5496,0.5506,0.5511,0.5513,0.5513,0.5513,0.5514,0.5511,0.5509,0.5511,0.5511,0.5511,0.5511,0.5511,0.5511,0.5392,0.5403,0.5407,0.5421,0.5428,0.5438,0.5443,0.545,0.5456,0.5469,0.5476,0.5482,0.5491,0.5501,0.5509,0.5512,0.5515,0.5515,0.5517,0.5514,0.5514,0.5514,0.5512,0.5515,0.5515,0.552,0.552,0.552]},{"header":{"parameterUnit":"m.s-1","parameterCategory":1,"la1":30.2991,"la2":30.254,"lo1":-89.0895,"lo2":-89.0444,"dx":0.0017,"dy":0.0017,"nx":28,"ny":28,"refTime":"2023-01-07T03:00:00:Z","depth":0,"parameterNumber":3,"parameterNumberName":"V-component_of_WINDS"},"data":[0,0,0,0,0,0,0,0,0,0,0,0,0,0,0,0,0,0,0,0,0,0,0,0,0,0,0,0,0,0,0,0,0,0,0,0,0,0,0,0,0,0,0,0,0,0,0,0,0,0,0,0,0,0,0,0,0,0,2.3853,2.3853,0,2.3863,2.3863,2.3863,2.3854,2.3854,2.3853,2.3853,2.3862,2.3863,2.3863,0,0,0,0,0,0,0,0,0,0,0,0,0,2.3824,2.3825,2.3853,2.3853,2.3853,2.3863,2.3863,2.3863,2.3854,2.3854,2.3853,2.3853,2.3862,2.3862,2.3863,0,0,0,0,0,0,0,0,0,0,0,0,0,2.3836,2.3825,2.3853,2.385,2.385,2.3863,2.3863,2.3863,2.3854,2.3854,2.3853,2.3853,2.3862,2.3862,2.3863,2.388,0,0,2.3866,2.3866,0,0,0,0,0,0,0,0,2.3835,2.3837,2.385,2.385,2.385,2.3857,2.3856,2.3869,2.3855,2.3852,2.3853,2.3852,2.3861,2.3861,2.3865,2.388,2.388,2.3866,2.3866,2.3867,2.3867,0,0,0,0,0,0,0,2.3834,2.3836,2.3857,2.385,2.385,2.3848,2.3849,2.3859,2.3859,2.3853,2.3852,2.3853,2.386,2.3864,2.3865,2.388,2.3866,2.3867,2.3867,2.3868,2.391,2.3911,0,0,0,0,0,0,2.3834,2.3836,2.3856,2.3857,2.3841,2.3848,2.385,2.3855,2.3859,2.3859,2.3854,2.3853,2.3863,2.3864,2.3865,2.3884,2.3867,2.3868,2.3868,2.3909,2.391,2.3911,0,0,0,0,0,0,2.3833,2.3836,2.3856,2.3846,2.3849,2.385,2.3856,2.3856,2.3859,2.386,2.386,2.3857,2.3862,2.3864,2.3876,2.3885,2.3868,2.3869,2.3909,2.391,2.391,2.3923,0,0,0,0,0,0,2.3833,2.3836,2.3842,2.3846,2.3849,2.3867,2.3856,2.3856,2.3861,2.386,2.3863,2.3863,2.3862,2.3875,2.3877,2.3885,2.3869,2.3908,2.3909,2.391,2.3922,2.3925,2.3927,0,0,0,0,0,2.3832,2.3845,2.3842,2.3845,2.3857,2.3868,2.3869,2.3868,2.3861,2.3868,2.3869,2.3863,2.3884,2.3876,2.3879,2.3887,2.3907,2.3909,2.391,2.3921,2.3924,2.3927,0,0,0,0,0,0,2.384,2.3845,2.3843,2.3858,2.3863,2.3866,2.3874,2.3871,2.3877,2.3876,2.3873,2.3874,2.3887,2.3888,2.388,2.3904,2.3894,2.3896,2.3902,2.3905,2.3907,2.3906,2.387,0,0,0,0,0,2.3844,2.3853,2.3857,2.387,2.3872,2.3873,2.3877,2.3876,2.388,2.3882,2.3884,2.3888,2.3896,2.39,2.3907,2.3923,2.3923,2.393,2.3932,2.3934,2.3935,2.3944,2.3947,2.3915,2.3915,2.3915,0,0,2.3852,2.3856,2.3861,2.3872,2.3875,2.3884,2.3875,2.3884,2.389,2.3883,2.3895,2.3897,2.3902,2.3916,2.3922,2.3917,2.3944,2.3936,2.3937,2.3937,2.3945,2.3948,2.3951,2.3916,2.3916,2.3916,0,0,2.3871,2.3875,2.3886,2.389,2.3896,2.3896,2.3899,2.3904,2.3905,2.3917,2.3912,2.3919,2.3932,2.3935,2.3939,2.396,2.3955,2.3962,2.3974,2.3982,2.3984,2.3987,2.3994,2.3997,2.3964,2.3964,2.3964,0,2.3879,2.3893,2.3892,2.3902,2.3907,2.3902,2.3913,2.3917,2.3925,2.3928,2.3923,2.3939,2.3942,2.3956,2.3962,2.3965,2.3968,2.3961,2.3984,2.3986,2.3988,2.3995,2.3998,2.3965,2.3965,2.3965,2.3965,0,2.3903,2.3913,2.3921,2.393,2.3935,2.3946,2.3946,2.3952,2.395,2.3951,2.3964,2.3967,2.3975,2.3978,2.3976,2.3993,2.399,2.3985,2.3975,2.3992,2.3999,2.4001,2.3966,2.3966,2.3965,2.3965,0,0,2.3926,2.3935,2.3938,2.3942,2.3949,2.3956,2.3967,2.3975,2.398,2.3985,2.3994,2.4005,2.4,2.4004,2.4003,2.401,2.4027,2.4004,2.4004,2.4008,2.4045,2.4049,2.4052,2.4024,2.4025,2.4025,2.4045,0,2.3945,2.3964,2.3964,2.3982,2.399,2.3987,2.3996,2.4001,2.4002,2.4009,2.4011,2.4019,2.4012,2.4015,2.4022,2.4023,2.4034,2.4022,2.4031,2.4032,2.403,2.4055,2.4059,2.4077,2.4047,2.4048,2.4048,0,2.3969,2.3977,2.3995,2.4001,2.4005,2.4013,2.4021,2.4028,2.4034,2.4034,2.4039,2.4037,2.4047,2.4038,2.4052,2.4044,2.4048,2.405,2.405,2.405,2.404,2.4055,2.4083,2.4085,2.4052,2.4052,2.4051,0,2.3984,2.3998,2.4012,2.4015,2.4022,2.4028,2.4032,2.4037,2.4042,2.4049,2.4052,2.4059,2.4063,2.4069,2.4069,2.4062,2.4083,2.4074,2.4083,2.4083,2.4087,2.4087,2.4115,2.4091,2.4091,2.4091,2.4091,0,2.4004,2.4016,2.4018,2.4026,2.4039,2.4039,2.4052,2.4054,2.4059,2.4067,2.4064,2.4072,2.4071,2.4079,2.4078,2.409,2.4092,2.4092,2.4092,2.4092,2.4092,2.4094,2.4093,2.4091,2.4091,2.4091,2.4091,0,2.4022,2.4025,2.4039,2.4045,2.4047,2.4056,2.4061,2.4069,2.407,2.4081,2.4083,2.4086,2.4094,2.4095,2.4105,2.4105,2.4119,2.4117,2.4117,2.4117,2.4126,2.4125,2.4156,2.416,2.4134,2.4134,2.4134,0,2.4035,2.4044,2.4052,2.4057,2.4061,2.407,2.4076,2.4076,2.4082,2.409,2.4096,2.4105,2.4112,2.4126,2.4128,2.4136,2.4134,2.4145,2.4135,2.4135,2.4134,2.4133,2.4134,2.4146,2.4146,2.4147,2.4147,0,2.4057,2.4058,2.4066,2.4076,2.4082,2.4089,2.4096,2.4101,2.4102,2.4109,2.4118,2.4124,2.4134,2.4143,2.4151,2.4153,2.415,2.415,2.4153,2.4152,2.4152,2.4152,2.4122,2.4149,2.4149,2.4149,2.4149,2.4149,2.4072,2.408,2.4087,2.4097,2.4102,2.4108,2.4116,2.4119,2.4127,2.4137,2.4136,2.4147,2.4152,2.4163,2.4166,2.4174,2.417,2.4174,2.4175,2.4175,2.4176,2.4151,2.4175,2.4175,2.4175,2.4175,2.4175,0,2.4094,2.4098,2.4107,2.4117,2.4125,2.4123,2.413,2.4136,2.4146,2.4152,2.4159,2.417,2.4178,2.4182,2.419,2.4196,2.4194,2.4198,2.4197,2.4198,2.4179,2.4176,2.4199,2.4199,2.4199,2.4199,2.4199,2.4199,2.4106,2.4119,2.4121,2.4137,2.4141,2.4152,2.4156,2.4162,2.4167,2.418,2.4187,2.419,2.4195,2.4204,2.4211,2.4212,2.4215,2.4219,2.4219,2.4201,2.4199,2.4197,2.4194,2.4219,2.4219,2.4236,2.4237,2.4237]}]]